Retour au catalogue

KINEIS-4C

ActifCommunicationsSSO
NORAD 63301·PAYLOAD·🇫🇷 France

Lancé Mar 18, 2025 depuis Rocket Lab Launch Complex 1

Loading…

Prochains Passages (prochaines 24 heures)

TLE

FraisSource: Space-Track

Époque: Sep 14, 2026, 21:39 UTC

1 63301U 25056B   26257.90273222  .00001224  00000-0  20112-3 0  9998
2 63301  97.9191  19.6487 0004397  52.3235 307.8371 14.72333331 80332

Suivez KINEIS-4C en temps réel avec AllMySat

Download on the App Store